This is the latest recevied weather packets stored in our database for station/object KO4APQ. If no packets are shown the sender has not sent any weather packets the latest 10 day(s).
| Time | Temp. | Humidity | Pressure | Rain* | Wind** | Luminosity | Snow |
|---|---|---|---|---|---|---|---|
| 1778253123 | 18.89° C | 51% | 1019.1 hPa | 0 mm | - | 836 W/m² | - |
| 1778252819 | 19.44° C | 51% | 1019.1 hPa | 0 mm | - | 823 W/m² | - |
| 1778252516 | 20° C | 52% | 1019 hPa | 0 mm | - | 811 W/m² | - |
| 1778252212 | 18.89° C | 54% | 1018.9 hPa | 0 mm | - | 796 W/m² | - |
| 1778251908 | 18.33° C | 54% | 1018.6 hPa | 0 mm | - | 780 W/m² | - |
| 1778251304 | 17.78° C | 54% | 1018.7 hPa | 0 mm | - | 756 W/m² | - |
| 1778251001 | 17.78° C | 54% | 1018.8 hPa | 0 mm | - | 744 W/m² | - |
| 1778250698 | 18.33° C | 58% | 1018.7 hPa | 0 mm | - | 737 W/m² | - |
| 1778250394 | 17.78° C | 57% | 1018.7 hPa | 0 mm | - | 713 W/m² | - |
| 1778250091 | 17.78° C | 60% | 1018.8 hPa | 0 mm | - | 678 W/m² | - |
| 1778249787 | 17.22° C | 61% | 1018.8 hPa | 0 mm | - | 692 W/m² | - |
| 1778249485 | 17.22° C | 61% | 1018.8 hPa | 0 mm | - | 670 W/m² | - |
| 1778249182 | 17.22° C | 59% | 1018.9 hPa | 0 mm | - | 599 W/m² | - |
| 1778248879 | 16.67° C | 67% | 1018.8 hPa | 0 mm | - | 634 W/m² | - |
| 1778248574 | 16.67° C | 68% | 1019.3 hPa | 0 mm | - | 600 W/m² | - |
| 1778248271 | 16.67° C | 67% | 1019 hPa | 0 mm | - | 567 W/m² | - |
| 1778247968 | 16.11° C | 68% | 1019.4 hPa | 0 mm | - | 587 W/m² | - |
| 1778247665 | 16.11° C | 71% | 1019.3 hPa | 0 mm | - | 495 W/m² | - |
| 1778247361 | 15.56° C | 73% | 1019.3 hPa | 0 mm | - | 454 W/m² | - |
| 1778247059 | 15.56° C | 73% | 1019.4 hPa | 0 mm | - | 397 W/m² | - |
| 1778246756 | 15° C | 76% | 1019.2 hPa | 0 mm | - | 355 W/m² | - |
| 1778246453 | 14.44° C | 76% | 1019.3 hPa | 0 mm | - | 365 W/m² | - |
| 1778246148 | 13.89° C | 77% | 1019.4 hPa | 0 mm | - | 345 W/m² | - |
| 1778245845 | 13.89° C | 78% | 1019.3 hPa | 0 mm | - | 254 W/m² | - |
| 1778245542 | 13.89° C | 79% | 1019.2 hPa | 0 mm | - | 221 W/m² | - |
* Rain latest hour (hover to see other rain measurements)
** Current wind speed in m/s (hover to see current wind gust speed)